Aidablu — IBWX — position and weather

sailwx.info

Track history (hours):
 
Tides and Currents Weather Stations Pressure Air Temp Water Temp Dewpoint Dewpoint Depression Visibility Wind Speed Wind Dir Waves Ship Positions

Aidablu

Last reported at 2014-Oct-28 03:33 UTC. Time now 2014-Oct-30 23:00 UTC.
Position N 36°12' W 006°24'.

Length 252 m; draft 7.3 m.

Type: Ship. MMSI: 247282500.

Date/timePositionNaut miles runAvg speedWind from/ knotsBaromVisibWave heightAir tempDewpointWater temp
2014-Oct-28 03:33N 36°12' W 006°24'1312.6
2014-Oct-28 02:33N 36°02' W 006°15'3115.4
2014-Oct-28 00:32N 35°58' W 005°36'1313.1
2014-Oct-27 23:33N 36°01' W 005°21'35116.6
2014-Oct-27 02:23N 38°25' E 001°21'2018.2
2014-Oct-27 01:17N 38°36' E 001°42'1518.2
2014-Oct-27 00:27N 38°48' E 001°54'1718.5
2014-Oct-26 23:33N 39°01' E 002°07'1918.4
2014-Oct-26 22:33N 39°16' E 002°22'1818.4
2014-Oct-26 21:33N 39°30' E 002°36'3 2.9
2014-Oct-26 20:29N 39°33' E 002°38'0 0.0
2014-Oct-26 19:26N 39°33' E 002°38'0 0.0
2014-Oct-26 18:29N 39°33' E 002°38'0 0.0
2014-Oct-26 17:31N 39°33' E 002°38'0 0.0
2014-Oct-26 16:22N 39°33' E 002°38'0 0.0
2014-Oct-26 15:33N 39°33' E 002°38'0 0.0
2014-Oct-26 14:33N 39°33' E 002°38'0 0.0
2014-Oct-26 13:32N 39°33' E 002°38'0 0.0
2014-Oct-26 12:32N 39°33' E 002°38'0 0.0
2014-Oct-26 11:32N 39°33' E 002°38'0 0.0
2014-Oct-26 10:31N 39°33' E 002°38'0 0.0
2014-Oct-26 09:31N 39°33' E 002°38'0 0.0
2014-Oct-26 08:33N 39°33' E 002°38'0 0.0
2014-Oct-26 07:33N 39°33' E 002°38'0 0.0
2014-Oct-26 06:32N 39°33' E 002°38'0 0.0
2014-Oct-26 05:33N 39°33' E 002°38'0 0.0
2014-Oct-26 04:32N 39°33' E 002°38'0 0.0
2014-Oct-26 03:33N 39°33' E 002°38'3 2.7
2014-Oct-26 02:33N 39°30' E 002°37'8 7.5
2014-Oct-26 01:33N 39°26' E 002°29'8 7.8
2014-Oct-26 00:33N 39°30' E 002°20'8 8.1
2014-Oct-25 23:33N 39°37' E 002°14'1514.6
2014-Oct-25 22:33N 39°51' E 002°13'1514.6
2014-Oct-25 21:33N 40°06' E 002°12'1414.2
2014-Oct-25 20:33N 40°20' E 002°11'1414.4
2014-Oct-25 19:33N 40°34' E 002°12'1514.6
2014-Oct-25 18:33N 40°49' E 002°12'1514.7
2014-Oct-25 17:33N 41°04' E 002°11'1513.4
2014-Oct-25 16:25N 41°19' E 002°10'3 0.6
2014-Oct-25 12:04N 41°22' E 002°11'82 5.6
2014-Oct-24 21:33N 41°26' E 003°59'1512.7
2014-Oct-24 20:23N 41°28' E 004°19'1413.8
2014-Oct-24 19:22N 41°29' E 004°38'1313.7
2014-Oct-24 18:25N 41°31' E 004°55'1010.2
2014-Oct-24 17:28N 41°32' E 005°08'9 7.3
2014-Oct-24 16:14N 41°33' E 005°20'30 7.3
2014-Oct-24 12:06N 41°36' E 005°60'7 7.0
2014-Oct-24 11:04N 41°37' E 006°09'14 7.4
2014-Oct-24 09:08N 41°39' E 006°28'149 4.4
2014-Oct-22 23:21N 43°04' E 009°13'1514.5
2014-Oct-22 22:20N 43°10' E 009°31'1114.1
2014-Oct-22 21:33N 43°15' E 009°45'1414.1
2014-Oct-22 20:33N 43°22' E 010°02'1413.9
2014-Oct-22 19:33N 43°32' E 010°15'2 2.2
2014-Oct-22 18:31N 43°33' E 010°18'0 0.0
2014-Oct-22 17:31N 43°33' E 010°18'0 0.0
2014-Oct-22 16:33N 43°33' E 010°18'0 0.0
2014-Oct-22 15:33N 43°33' E 010°18'0 0.0
2014-Oct-22 14:32N 43°33' E 010°18'0 0.0
2014-Oct-22 13:32N 43°33' E 010°18'0 0.0
2014-Oct-22 12:31N 43°33' E 010°18'0 0.0
2014-Oct-22 11:31N 43°33' E 010°18'0 0.0
2014-Oct-22 10:31N 43°33' E 010°18'0 0.0
2014-Oct-22 09:33N 43°33' E 010°18'0 0.0
2014-Oct-22 08:33N 43°33' E 010°18'0 0.0
2014-Oct-22 07:32N 43°33' E 010°18'0 0.0
2014-Oct-22 06:32N 43°33' E 010°18'0 0.0
2014-Oct-22 05:31N 43°33' E 010°18'0 0.0
2014-Oct-22 04:32N 43°33' E 010°18'0 0.0
2014-Oct-22 03:31N 43°33' E 010°18'0 0.0
2014-Oct-22 02:33N 43°33' E 010°18'0 0.0
2014-Oct-22 01:33N 43°33' E 010°18'5 5.2
2014-Oct-22 00:33N 43°29' E 010°13'1918.5
2014-Oct-21 23:34N 43°11' E 010°18'  
2014-Oct-19 19:18N 38°45' E 013°36'1013.9
2014-Oct-19 18:33N 38°35' E 013°33'1313.5
2014-Oct-19 17:33N 38°21' E 013°32'1313.3
2014-Oct-19 16:33N 38°09' E 013°26'3 3.0
2014-Oct-19 15:31N 38°08' E 013°22'0 0.0
2014-Oct-19 14:31N 38°08' E 013°22'0 0.0
2014-Oct-19 13:33N 38°08' E 013°22'0 0.0
2014-Oct-19 12:33N 38°08' E 013°22'0 0.0
2014-Oct-19 11:32N 38°08' E 013°22'0 0.0
2014-Oct-19 10:29N 38°08' E 013°22'0 0.0
2014-Oct-19 09:31N 38°08' E 013°22'0 0.0
2014-Oct-19 08:28N 38°08' E 013°22'0 0.0
2014-Oct-19 07:31N 38°08' E 013°22'0 0.1
2014-Oct-19 06:33N 38°08' E 013°22'5 5.0
2014-Oct-19 05:34N 38°13' E 013°23'1110.8
2014-Oct-19 04:33N 38°20' E 013°12'1313.1
2014-Oct-19 03:34N 38°23' E 012°56'11716.7
2014-Oct-18 20:33N 38°49' E 010°30'5317.7
2014-Oct-18 17:33N 39°02' E 009°24'1515.4
2014-Oct-18 16:33N 39°09' E 009°07'3 3.4
2014-Oct-18 15:33N 39°12' E 009°06'0 0.0
2014-Oct-18 14:32N 39°12' E 009°06'0 0.0
2014-Oct-18 13:32N 39°12' E 009°06'0 0.0
2014-Oct-18 12:32N 39°12' E 009°06'0 0.0
2014-Oct-18 11:31N 39°12' E 009°06'0 0.0
2014-Oct-18 10:31N 39°12' E 009°06'0 0.0
2014-Oct-18 09:33N 39°12' E 009°06'0 0.0
2014-Oct-18 08:33N 39°12' E 009°06'0 0.0
2014-Oct-18 07:32N 39°12' E 009°06'0 0.0
2014-Oct-18 06:32N 39°12' E 009°06'0 0.0
2014-Oct-18 05:33N 39°12' E 009°06'5 5.4
2014-Oct-18 04:33N 39°07' E 009°07'  
Track history (hours):
 
Tides and Currents Weather Stations Pressure Air Temp Water Temp Dewpoint Dewpoint Depression Visibility Wind Speed Wind Dir Waves Ship Positions

Aidablu

Last reported at 2014-Oct-28 03:33 UTC. Time now 2014-Oct-30 23:00 UTC.
Position N 36°12' W 006°24'.

Length 252 m; draft 7.3 m.

Type: Ship. MMSI: 247282500.

Date/timePositionNaut miles runAvg speedWind from/ knotsBaromVisibWave heightAir tempDewpointWater temp
2014-Oct-28 03:33N 36°12' W 006°24'1312.6
2014-Oct-28 02:33N 36°02' W 006°15'3115.4
2014-Oct-28 00:32N 35°58' W 005°36'1313.1
2014-Oct-27 23:33N 36°01' W 005°21'35116.6
2014-Oct-27 02:23N 38°25' E 001°21'2018.2
2014-Oct-27 01:17N 38°36' E 001°42'1518.2
2014-Oct-27 00:27N 38°48' E 001°54'1718.5
2014-Oct-26 23:33N 39°01' E 002°07'1918.4
2014-Oct-26 22:33N 39°16' E 002°22'1818.4
2014-Oct-26 21:33N 39°30' E 002°36'3 2.9
2014-Oct-26 20:29N 39°33' E 002°38'0 0.0
2014-Oct-26 19:26N 39°33' E 002°38'0 0.0
2014-Oct-26 18:29N 39°33' E 002°38'0 0.0
2014-Oct-26 17:31N 39°33' E 002°38'0 0.0
2014-Oct-26 16:22N 39°33' E 002°38'0 0.0
2014-Oct-26 15:33N 39°33' E 002°38'0 0.0
2014-Oct-26 14:33N 39°33' E 002°38'0 0.0
2014-Oct-26 13:32N 39°33' E 002°38'0 0.0
2014-Oct-26 12:32N 39°33' E 002°38'0 0.0
2014-Oct-26 11:32N 39°33' E 002°38'0 0.0
2014-Oct-26 10:31N 39°33' E 002°38'0 0.0
2014-Oct-26 09:31N 39°33' E 002°38'0 0.0
2014-Oct-26 08:33N 39°33' E 002°38'0 0.0
2014-Oct-26 07:33N 39°33' E 002°38'0 0.0
2014-Oct-26 06:32N 39°33' E 002°38'0 0.0
2014-Oct-26 05:33N 39°33' E 002°38'0 0.0
2014-Oct-26 04:32N 39°33' E 002°38'0 0.0
2014-Oct-26 03:33N 39°33' E 002°38'3 2.7
2014-Oct-26 02:33N 39°30' E 002°37'8 7.5
2014-Oct-26 01:33N 39°26' E 002°29'8 7.8
2014-Oct-26 00:33N 39°30' E 002°20'8 8.1
2014-Oct-25 23:33N 39°37' E 002°14'1514.6
2014-Oct-25 22:33N 39°51' E 002°13'1514.6
2014-Oct-25 21:33N 40°06' E 002°12'1414.2
2014-Oct-25 20:33N 40°20' E 002°11'1414.4
2014-Oct-25 19:33N 40°34' E 002°12'1514.6
2014-Oct-25 18:33N 40°49' E 002°12'1514.7
2014-Oct-25 17:33N 41°04' E 002°11'1513.4
2014-Oct-25 16:25N 41°19' E 002°10'3 0.6
2014-Oct-25 12:04N 41°22' E 002°11'82 5.6
2014-Oct-24 21:33N 41°26' E 003°59'1512.7
2014-Oct-24 20:23N 41°28' E 004°19'1413.8
2014-Oct-24 19:22N 41°29' E 004°38'1313.7
2014-Oct-24 18:25N 41°31' E 004°55'1010.2
2014-Oct-24 17:28N 41°32' E 005°08'9 7.3
2014-Oct-24 16:14N 41°33' E 005°20'30 7.3
2014-Oct-24 12:06N 41°36' E 005°60'7 7.0
2014-Oct-24 11:04N 41°37' E 006°09'14 7.4
2014-Oct-24 09:08N 41°39' E 006°28'149 4.4
2014-Oct-22 23:21N 43°04' E 009°13'1514.5
2014-Oct-22 22:20N 43°10' E 009°31'1114.1
2014-Oct-22 21:33N 43°15' E 009°45'1414.1
2014-Oct-22 20:33N 43°22' E 010°02'1413.9
2014-Oct-22 19:33N 43°32' E 010°15'2 2.2
2014-Oct-22 18:31N 43°33' E 010°18'0 0.0
2014-Oct-22 17:31N 43°33' E 010°18'0 0.0
2014-Oct-22 16:33N 43°33' E 010°18'0 0.0
2014-Oct-22 15:33N 43°33' E 010°18'0 0.0
2014-Oct-22 14:32N 43°33' E 010°18'0 0.0
2014-Oct-22 13:32N 43°33' E 010°18'0 0.0
2014-Oct-22 12:31N 43°33' E 010°18'0 0.0
2014-Oct-22 11:31N 43°33' E 010°18'0 0.0
2014-Oct-22 10:31N 43°33' E 010°18'0 0.0
2014-Oct-22 09:33N 43°33' E 010°18'0 0.0
2014-Oct-22 08:33N 43°33' E 010°18'0 0.0
2014-Oct-22 07:32N 43°33' E 010°18'0 0.0
2014-Oct-22 06:32N 43°33' E 010°18'0 0.0
2014-Oct-22 05:31N 43°33' E 010°18'0 0.0
2014-Oct-22 04:32N 43°33' E 010°18'0 0.0
2014-Oct-22 03:31N 43°33' E 010°18'0 0.0
2014-Oct-22 02:33N 43°33' E 010°18'0 0.0
2014-Oct-22 01:33N 43°33' E 010°18'5 5.2
2014-Oct-22 00:33N 43°29' E 010°13'1918.5
2014-Oct-21 23:34N 43°11' E 010°18'  
2014-Oct-19 19:18N 38°45' E 013°36'1013.9
2014-Oct-19 18:33N 38°35' E 013°33'1313.5
2014-Oct-19 17:33N 38°21' E 013°32'1313.3
2014-Oct-19 16:33N 38°09' E 013°26'3 3.0
2014-Oct-19 15:31N 38°08' E 013°22'0 0.0
2014-Oct-19 14:31N 38°08' E 013°22'0 0.0
2014-Oct-19 13:33N 38°08' E 013°22'0 0.0
2014-Oct-19 12:33N 38°08' E 013°22'0 0.0
2014-Oct-19 11:32N 38°08' E 013°22'0 0.0
2014-Oct-19 10:29N 38°08' E 013°22'0 0.0
2014-Oct-19 09:31N 38°08' E 013°22'0 0.0
2014-Oct-19 08:28N 38°08' E 013°22'0 0.0
2014-Oct-19 07:31N 38°08' E 013°22'0 0.1
2014-Oct-19 06:33N 38°08' E 013°22'5 5.0
2014-Oct-19 05:34N 38°13' E 013°23'1110.8
2014-Oct-19 04:33N 38°20' E 013°12'1313.1
2014-Oct-19 03:34N 38°23' E 012°56'11716.7
2014-Oct-18 20:33N 38°49' E 010°30'5317.7
2014-Oct-18 17:33N 39°02' E 009°24'1515.4
2014-Oct-18 16:33N 39°09' E 009°07'3 3.4
2014-Oct-18 15:33N 39°12' E 009°06'0 0.0
2014-Oct-18 14:32N 39°12' E 009°06'0 0.0
2014-Oct-18 13:32N 39°12' E 009°06'0 0.0
2014-Oct-18 12:32N 39°12' E 009°06'0 0.0
2014-Oct-18 11:31N 39°12' E 009°06'0 0.0
2014-Oct-18 10:31N 39°12' E 009°06'0 0.0
2014-Oct-18 09:33N 39°12' E 009°06'0 0.0
2014-Oct-18 08:33N 39°12' E 009°06'0 0.0
2014-Oct-18 07:32N 39°12' E 009°06'0 0.0
2014-Oct-18 06:32N 39°12' E 009°06'0 0.0
2014-Oct-18 05:33N 39°12' E 009°06'5 5.4
2014-Oct-18 04:33N 39°07' E 009°07'  

Dump ship's entire track history